Theta_e
307 306 305 306 304 303 301 302 299 298 297 299 303 306 305 305 309 308 308 311 313 311 309 309 309 309 309 306 305 306 303 303 306 308 307 305 306 306 305 306 306 308 308 308 308
308 305 303 303 303 300 300 300 298 298 298 300 304 306 305 306 310 307 307 310 311 310 310 309 308 307 304 304 304 303 302 307 307 307 307 306 307 306 307 308 310 309 309 308 307
308 305 302 300 300 299 299 298 298 297 299 301 305 306 306 310 309 307 308 310 311 310 311 310 309 307 304 304 305 307 306 307 309 309 307 308 308 307 309 311 309 309 309 308 307
308 306 302 300 299 299 298 297 297 297 300 302 306 306 308 310 315 306 309 310 309 309 310 309 306 305 305 306 305 308 308 309 309 309 309 308 307 309 310 310 307 307 309 308 307
308 307 303 300 299 299 298 297 297 298 300 305 306 306 310 306 306 306 310 309 309 309 308 308 306 305 306 306 306 307 308 308 308 308 307 308 310 309 310 308 306 308 309 308 307
308 306 303 300 299 299 297 297 297 298 302 305 306 308 310 310 305 306 309 310 309 309 309 309 307 305 307 307 306 306 308 308 308 310 309 310 311 310 309 306 307 307 309 308 307
307 306 303 300 300 299 297 297 297 299 303 305 306 308 305 306 306 307 310 311 309 309 309 309 308 308 307 307 307 306 308 307 309 310 311 310 312 311 308 307 307 306 308 307 307
307 307 303 300 300 298 297 297 298 302 304 305 306 308 305 304 306 306 309 310 310 309 309 309 309 306 307 306 307 310 308 311 310 309 310 310 311 310 307 307 307 306 307 307 307
307 307 304 300 301 298 297 297 301 302 303 306 307 306 306 305 305 306 307 309 311 311 311 311 309 308 308 312 308 304 309 307 312 309 309 310 310 309 307 307 306 306 307 307 306
307 307 304 301 300 297 297 299 301 302 301 302 303 305 304 305 305 307 307 309 310 310 310 311 306 304 304 306 300 306 307 308 310 311 310 311 310 307 308 307 305 304 306 306 306
307 307 304 302 299 297 298 299 303 302 301 303 303 305 305 305 306 307 307 309 310 307 310 308 305 304 308 308 306 303 301 304 307 309 311 310 308 308 309 306 304 303 305 305 305
307 307 303 302 299 297 299 301 303 302 301 302 303 303 304 304 308 306 307 310 310 307 309 305 307 308 308 308 307 304 307 302 305 308 310 303 309 309 311 308 304 303 303 304 304
307 307 303 303 298 297 300 301 299 303 302 302 302 304 304 305 306 305 307 309 308 310 310 309 309 309 312 311 309 311 312 308 307 307 310 309 307 308 312 309 304 302 300 301 302
307 306 303 302 297 301 300 301 299 304 301 302 301 303 304 305 305 305 304 307 308 309 308 309 309 311 311 310 307 310 308 308 309 310 307 306 304 305 313 310 304 301 299 298 300
307 306 304 301 302 300 302 298 299 305 313 303 302 302 303 306 305 305 305 307 308 308 307 308 310 310 311 309 307 309 307 308 310 312 310 305 308 307 312 312 306 301 300 298 297
308 306 304 301 301 301 299 299 304 307 311 300 302 304 305 304 305 305 305 304 305 306 305 306 306 306 307 306 306 306 308 310 309 307 304 306 307 304 310 313 308 302 299 298 297
308 306 305 298 300 301 298 303 306 307 300 298 301 304 304 305 306 306 306 305 302 299 301 305 307 305 305 307 307 307 307 309 305 304 305 304 305 303 310 311 306 302 299 297 296
308 307 305 299 301 298 303 304 303 299 297 299 303 303 304 303 305 307 304 301 305 303 298 303 303 306 305 306 307 307 306 303 303 307 301 302 304 302 310 308 302 301 298 297 296
308 306 302 300 300 299 302 304 309 299 301 301 302 301 301 303 303 306 303 303 302 304 303 303 304 304 305 305 306 307 303 304 307 297 305 305 301 302 309 308 302 301 299 297 295
304 301 299 299 299 301 303 305 295 301 300 301 302 299 296 298 302 303 304 304 304 304 303 304 304 304 306 305 306 308 305 307 304 299 302 303 303 301 304 305 306 303 299 297 296
304 301 299 298 300 300 302 297 295 297 299 301 300 297 300 299 298 302 303 303 303 304 304 303 302 302 304 305 306 307 307 304 304 304 306 304 304 298 304 303 304 304 300 297 295
299 302 297 298 297 295 292 293 298 296 298 299 298 301 299 300 301 300 302 302 302 302 304 305 304 301 306 305 304 305 306 304 304 307 302 305 302 301 305 304 302 304 301 297 295
299 297 296 296 295 291 290 291 294 296 298 298 299 301 300 301 301 303 300 299 301 304 303 302 299 298 302 304 302 304 304 305 302 300 305 304 304 302 302 304 304 304 301 298 295
298 298 296 293 292 294 292 292 294 295 298 298 299 299 298 299 295 299 300 299 300 303 304 303 302 303 307 306 303 304 306 304 302 301 302 303 302 302 301 302 302 303 301 297 295
297 299 293 294 294 295 297 295 295 295 296 298 299 299 299 297 299 297 298 299 299 303 302 298 296 297 302 301 301 302 304 304 304 302 305 305 303 302 301 300 299 299 299 297 296
300 297 291 289 297 299 298 294 296 296 297 298 298 298 297 299 301 300 299 298 300 301 301 298 293 290 292 296 297 300 299 301 303 303 302 302 303 301 300 298 298 299 300 299 297
300 298 300 298 297 299 298 296 297 297 296 297 298 298 299 299 297 296 296 296 297 299 295 294 290 293 300 289 294 304 298 298 299 299 302 304 303 302 303 302 302 301 298 300 299
Wind_Speed
7 7 7 8 8 9 9 9 10 10 10 9 9 8 6 6 13 19 11 13 14 19 13 8 14 6 5 4 6 2 5 2 1 1 0 3 4 5 3 3 3 3 4 13 29
8 8 7 8 8 8 8 9 9 9 8 8 8 8 6 6 5 14 16 14 12 13 8 10 7 9 4 5 5 5 4 2 0 2 1 3 1 4 4 5 3 10 10 19 24
10 9 7 7 8 8 8 8 9 9 7 7 7 7 6 4 2 5 18 14 13 10 4 5 5 3 6 5 6 4 4 5 1 2 2 2 3 2 3 4 3 12 17 21 23
11 11 9 8 8 8 7 7 7 8 7 6 6 5 6 4 1 7 15 14 14 9 5 5 5 4 5 5 4 7 5 4 2 1 2 0 3 3 1 3 7 9 14 17 15
12 13 10 9 8 8 7 7 7 6 6 6 5 5 2 5 2 10 12 16 12 11 13 4 6 4 4 4 3 6 3 3 1 2 3 0 1 3 3 7 9 11 14 14 13
13 12 11 9 8 8 7 7 6 5 4 5 6 4 2 3 3 9 9 13 15 13 16 9 3 4 6 3 4 4 5 2 3 2 3 1 1 0 3 7 8 11 13 13 13
13 12 10 9 9 8 7 6 5 3 2 4 5 4 6 2 3 8 6 9 12 11 5 9 3 3 4 3 2 5 4 1 2 1 1 2 3 1 4 7 8 11 12 12 15
14 11 10 10 9 8 7 6 3 2 2 2 3 2 2 1 3 8 3 4 7 9 6 6 6 6 4 3 4 3 4 2 1 5 1 3 5 1 4 6 10 12 12 14 15
15 12 11 10 9 7 6 3 1 2 2 2 2 2 2 1 2 5 6 4 5 5 4 4 4 4 4 4 4 7 1 3 4 3 4 3 4 2 5 7 9 11 12 12 16
16 14 11 9 8 6 4 1 1 2 3 4 3 3 2 1 3 4 4 4 3 4 3 5 5 4 4 4 3 3 2 3 3 3 5 4 5 7 5 6 7 9 11 14 15
17 15 12 9 6 5 1 3 3 3 8 2 2 3 1 1 3 4 5 4 2 5 3 5 7 2 0 3 4 6 4 1 4 3 4 2 5 6 6 5 8 8 11 13 15
18 16 12 8 5 3 3 2 2 3 4 2 3 3 1 1 1 5 7 2 3 3 3 6 3 2 4 3 3 4 2 3 5 4 2 2 5 3 4 3 4 7 10 13 15
19 17 12 8 5 4 5 3 4 4 4 0 0 2 2 1 1 3 4 1 4 4 4 5 3 3 1 2 3 1 1 1 4 5 2 2 5 3 0 3 5 7 6 9 11
21 17 13 9 4 6 4 7 7 3 4 2 2 1 1 1 3 2 3 1 4 5 4 5 2 2 1 0 2 3 2 1 4 3 0 3 3 4 3 3 5 6 7 8 11
22 19 15 14 4 4 4 11 8 2 2 1 2 0 1 3 4 4 2 2 4 4 4 3 5 2 1 1 1 2 3 3 3 2 2 4 3 6 0 1 3 6 6 7 7
24 20 17 11 6 5 11 13 4 6 6 2 2 4 4 1 1 2 2 4 2 5 5 3 0 1 2 1 1 1 3 1 3 3 3 3 3 4 2 1 1 1 4 5 6
25 22 20 11 4 12 15 5 5 4 4 3 4 4 3 4 2 2 4 3 5 5 2 4 1 2 1 2 3 5 4 3 4 4 4 3 2 7 3 3 5 5 4 3 4
27 24 21 12 7 16 8 5 3 2 6 2 3 3 5 5 1 3 4 3 2 4 4 5 4 3 1 0 3 2 4 4 4 2 4 4 3 3 2 5 5 4 5 5 5
31 24 13 13 14 16 4 3 8 8 7 10 4 4 2 2 5 3 6 6 7 7 5 5 1 1 2 1 2 1 1 2 5 2 3 3 6 0 3 4 5 6 4 5 6
26 14 5 14 16 4 3 6 5 4 6 4 7 4 6 5 4 5 7 4 6 3 4 5 4 0 1 0 1 1 2 2 3 2 2 4 4 4 4 8 8 7 8 6 5
21 4 9 16 14 3 5 7 5 5 2 6 6 5 5 7 6 6 8 1 4 4 4 5 3 3 1 3 5 1 2 2 2 2 3 1 5 5 3 5 9 9 9 8 8
9 4 11 19 3 1 4 6 3 4 1 2 4 4 7 6 5 4 8 2 3 6 8 4 4 3 2 0 1 2 3 4 4 4 1 1 6 2 3 3 6 7 7 7 6
6 3 2 1 6 3 1 1 3 4 5 6 4 3 2 6 4 4 4 2 0 3 6 6 1 3 6 4 3 4 4 3 4 3 4 4 5 0 4 5 5 8 8 7 7
4 4 1 1 2 8 6 4 4 2 3 4 5 5 4 2 3 5 3 2 1 2 4 2 4 5 6 5 4 3 4 4 2 3 5 6 6 5 5 6 5 6 5 8 8
4 5 6 8 8 5 10 10 8 6 3 5 2 5 7 4 2 3 2 3 2 3 2 4 5 2 1 2 3 3 4 6 8 4 5 2 7 6 7 7 7 8 6 7 8
7 5 1 2 15 9 12 10 14 7 9 7 5 10 7 7 8 10 9 5 6 3 5 1 3 3 3 5 3 4 7 8 6 4 8 8 15 6 6 5 6 7 8 11 12
6 7 7 13 16 12 10 10 14 11 5 4 10 7 7 5 4 4 6 7 5 8 4 5 6 4 4 3 3 6 9 13 7 5 7 6 9 3 3 4 3 5 8 11 12
Wind_Direction
312 323 335 341 348 349 356 356 355 2 3 6 1 359 347 7 31 49 39 337 328 345 345 3 37 18 45 51 34 84 63 88 55 62 211 331 19 317 304 32 355 38 276 295 317
298 307 320 330 335 343 351 351 353 358 1 5 4 360 2 3 43 42 358 350 350 348 356 18 360 5 49 14 18 63 82 138 274 133 180 293 47 320 12 351 296 322 317 316 314
289 296 306 319 325 336 345 351 349 353 1 2 3 9 2 5 84 346 354 360 354 359 354 344 341 47 55 10 4 38 110 159 120 150 177 343 360 48 353 336 321 313 320 325 317
276 289 296 307 318 328 335 345 347 351 355 4 356 2 360 30 117 343 358 6 16 17 61 33 33 56 68 45 5 95 53 118 164 25 161 253 316 118 41 271 292 298 325 317 322
261 282 290 298 313 320 329 336 345 349 353 5 7 360 48 49 3 354 5 13 30 54 51 49 50 93 95 100 53 78 155 106 200 223 185 119 345 177 11 316 318 305 319 329 323
263 273 282 291 305 311 319 329 339 350 4 23 23 17 37 81 358 351 7 26 40 56 49 43 71 88 86 70 77 131 129 130 29 175 180 85 241 53 283 326 319 332 332 333 326
252 268 276 286 296 303 314 325 336 358 10 43 29 38 56 147 32 11 16 28 33 54 62 46 25 80 133 97 125 120 92 21 3 305 211 126 276 295 289 325 331 334 338 336 340
243 257 271 278 287 298 309 325 334 16 21 55 31 52 85 57 18 20 33 23 48 52 60 46 58 97 71 138 54 61 51 50 256 3 340 107 280 12 342 346 342 336 349 344 345
238 247 263 267 280 295 306 313 1 40 61 90 71 55 102 38 1 8 22 0 359 35 41 25 55 80 37 73 30 12 118 352 330 80 354 57 301 307 356 10 348 342 352 351 358
233 242 252 255 273 290 299 211 102 101 81 88 70 46 24 9 324 341 11 11 23 336 38 51 51 62 30 60 209 215 79 313 286 324 7 352 290 326 350 21 350 334 355 3 4
225 235 239 239 258 287 189 136 44 356 47 80 107 105 53 326 350 14 0 347 18 43 73 25 66 88 165 40 85 109 106 225 264 288 359 337 299 331 329 27 357 345 359 6 359
221 227 227 226 233 259 210 179 202 146 101 36 99 86 85 3 24 356 3 59 52 98 66 29 89 197 135 152 111 102 111 304 289 277 120 357 311 326 335 42 3 347 360 12 1
216 220 214 210 224 218 205 218 167 144 91 141 170 136 173 40 102 330 10 321 80 56 36 112 160 152 11 333 334 88 26 309 241 318 245 337 326 357 217 69 5 10 360 19 8
213 212 200 195 204 175 218 190 162 147 70 204 209 296 162 148 46 347 10 74 47 134 108 100 175 112 220 245 50 342 37 347 296 11 176 65 270 312 184 25 12 3 16 10 9
209 204 194 194 153 181 174 159 154 101 356 125 159 160 154 143 139 1 16 22 100 108 105 221 166 164 224 185 138 224 20 337 303 319 21 343 74 273 279 240 349 8 13 22 18
205 198 189 191 216 190 157 149 129 52 257 162 136 171 122 91 90 124 75 55 95 72 36 117 350 97 197 288 240 6 52 39 16 343 27 299 104 289 292 164 180 11 32 24 26
198 193 191 186 194 176 157 128 58 145 356 249 198 169 163 149 130 147 140 117 142 90 330 356 354 318 78 105 22 52 51 359 346 13 210 349 53 242 234 178 171 171 149 86 25
189 187 192 199 187 167 172 62 132 225 209 181 143 114 169 156 149 144 113 141 224 103 111 146 312 171 9 221 190 178 139 148 197 330 288 324 258 262 216 135 133 151 149 121 69
181 176 187 199 177 175 96 109 209 200 164 144 76 101 261 213 136 141 189 190 188 179 143 136 321 323 70 38 96 51 53 162 111 74 41 280 298 124 156 196 172 175 184 165 136
156 149 182 187 174 176 96 224 215 196 127 119 155 151 182 216 136 165 182 197 182 187 125 197 102 281 56 227 75 125 181 53 360 73 314 299 282 245 243 235 215 200 205 199 183
145 125 170 172 153 63 179 219 213 226 190 143 172 139 189 186 163 179 196 285 158 160 124 147 111 258 35 208 178 170 170 97 116 142 155 299 273 210 261 235 208 206 203 192 190
127 150 164 162 123 166 180 189 160 163 181 126 121 116 164 168 145 174 181 232 170 161 156 175 128 141 164 272 335 287 231 166 127 229 255 114 276 226 200 279 214 213 199 194 184
116 113 143 351 162 206 314 17 183 139 189 164 167 143 162 162 120 153 158 301 301 140 160 172 298 62 354 2 4 234 224 203 113 90 206 143 259 302 295 310 225 211 190 190 178
110 129 112 108 228 148 140 203 199 226 184 163 138 109 112 118 14 161 135 177 334 113 122 123 119 183 176 167 147 200 193 197 145 117 175 227 278 273 276 254 258 241 217 189 187
150 184 177 186 215 194 178 161 153 164 231 196 35 196 158 123 73 159 127 126 22 151 100 124 160 150 273 161 141 168 192 189 210 222 190 256 219 254 251 235 227 227 191 194 202
144 146 86 173 168 178 189 199 173 174 153 216 193 182 172 159 185 187 145 189 186 167 156 50 171 101 346 328 98 240 211 194 239 252 271 278 286 233 280 231 263 238 204 200 202
152 129 133 163 177 184 199 178 194 156 239 204 168 132 172 209 101 68 80 93 123 137 140 135 138 109 251 340 348 311 217 185 179 210 185 206 227 228 235 248 226 252 214 212 209